Meteo Giornale » Osservazioni meteo Svizzera » Locarno

ore: 03:50 - Osservazioni Meteo Locarno
Lat. 46° 10' N Lon. 8° 53' E Alt. 600 metri s.l.m.

nuvoloso Europe/Zurich

16 °C

Nuvoloso

Temp. 24 Ore

11 °C

22 °C

Nord

3.7 Km/h

Dew point 15 °C

Umidità 93 %

Visibilità  10 Km

Il sole sorge alle ore 07:11

Il sole tramonta alle ore 19:22

Data e Ora Cielo e Fenomeni T °C DP °C Um. % Pres. hPa Vis. km Vento km/h
Oggi h: 03:50 nuvoloso Nuvoloso 16 15 93 1024 10 N 3.7
Oggi h: 02:50 molto_nuvoloso Molto Nuvoloso 16 15 93 1024 10 N 0
Oggi h: 02:20 molto_nuvoloso Molto Nuvoloso 17 16 93 1024 10 N 0
Oggi h: 01:50 molto_nuvoloso Molto Nuvoloso 16 15 93 1024 10 N 0
Oggi h: 01:20 molto_nuvoloso Molto Nuvoloso 17 14 82 1024 10 N 3.7
Oggi h: 00:50 molto_nuvoloso Molto Nuvoloso 17 14 82 1023 10 N 5.5
Oggi h: 00:20 molto_nuvoloso Molto Nuvoloso 17 15 88 1023 10 E/NE 7.4
Ieri h: 23:50 molto_nuvoloso Molto Nuvoloso 16 14 87 1023 10 N 1.8
Ieri h: 23:20 poco_nuvoloso Poco Nuvoloso 17 14 82 1023 10 NE 7.4
Ieri h: 22:50 molto_nuvoloso Molto Nuvoloso 17 15 88 1023 10 N 3.7
Ieri h: 22:20 molto_nuvoloso Molto Nuvoloso 18 15 82 1022 10 N 5.5
Ieri h: 21:50 molto_nuvoloso Molto Nuvoloso 18 16 88 1022 10 N 1.8
Ieri h: 21:20 molto_nuvoloso Molto Nuvoloso 18 16 88 1022 10 N 3.7
Ieri h: 20:50 molto_nuvoloso Molto Nuvoloso 17 16 93 1022 10 N 1.8
Ieri h: 20:20 molto_nuvoloso Molto Nuvoloso 17 16 93 1021 10 N 0
Ieri h: 19:50 poco_nuvoloso Poco Nuvoloso 17 16 93 1021 2 N 0
Ieri h: 19:20 sereno Sereno 19 16 82 1021 10 N 1.8
Ieri h: 18:50 sereno Sereno 20 16 77 1020 10 N 5.5
Ieri h: 17:50 sereno Sereno 22 14 60 1020 10 N 5.5
Ieri h: 15:50 sereno Sereno 21 13 60 1021 10 N 5.5
Ieri h: 15:20 sereno Sereno 22 13 56 1021 10 O/SO 7.4
Ieri h: 14:50 sereno Sereno 21 13 60 1021 10 O/SO 11.1
Ieri h: 14:20 sereno Sereno 21 12 56 1021 10 O/SO 7.4
Ieri h: 13:50 sereno Sereno 20 11 56 1022 10 O/SO 7.4
Ieri h: 13:20 sereno Sereno 19 11 59 1022 10 O/SO 11.1
Ieri h: 12:50 sereno Sereno 19 12 63 1022 10 O/SO 9.3
Ieri h: 11:50 sereno Sereno 19 10 55 1023 10 N 1.8
Ieri h: 11:20 poco_nuvoloso Poco Nuvoloso 18 10 59 1024 10 E 9.3
Ieri h: 10:50 poco_nuvoloso Poco Nuvoloso 17 10 63 1024 10 E 9.3
Ieri h: 10:20 poco_nuvoloso Poco Nuvoloso 16 10 67 1024 10 E/NE 7.4
Ieri h: 09:50 poco_nuvoloso Poco Nuvoloso 15 10 72 1024 10 NE 7.4
Ieri h: 09:20 poco_nuvoloso Poco Nuvoloso 14 11 82 1024 10 E/NE 11.1
Ieri h: 08:50 poco_nuvoloso Poco Nuvoloso 13 11 87 1024 10 E/NE 9.3
Ieri h: 08:20 molto_nuvoloso Molto Nuvoloso 12 11 93 1024 10 E 9.3
Ieri h: 07:50 molto_nuvoloso Molto Nuvoloso 12 11 93 1024 10 N 5.5
Ieri h: 07:20 molto_nuvoloso Molto Nuvoloso 12 11 93 1024 10 N 5.5
Ieri h: 06:50 molto_nuvoloso Molto Nuvoloso 11 11 100 1024 10 N 1.8